#Datum;Uhrzeit;WR;Pac;DaySum;Status;WR;Pac;DaySum;Status;Pdc1;Udc;Temp;WR;Pac;DaySum;Status;Pdc1;Udc;Temp;WR;Pac;DaySum;Status;Pdc1;Udc;Temp;WR;Pac;DaySum;Status;Pdc1;Pdc2;Udc1;Udc2;Temp;WR;Pac;DaySum;Status;Pdc1;Pdc2;Udc1;Udc2;Temp;WR;Pac;DaySum;Status;Pdc1;Udc;Temp;WR;Pac;DaySum;Status;Pdc1;Udc;Temp;WR;Pac;DaySum;Status;Pdc1;Udc;Temp
18.12.17;23:55:00;1;321;13788;0;2;0;3984;0;0;0;0;3;0;2449;0;0;0;0;4;0;3405;0;0;0;0;5;0;9844;0;0;0;0;0;0;6;0;8020;0;0;0;0;0;0;7;0;5247;0;0;0;0;8;0;5858;0;0;0;0;9;0;3344;0;0;0;0
18.12.17;23:50:00;1;319;13761;0;2;0;3984;0;0;0;0;3;0;2449;0;0;0;0;4;0;3405;0;0;0;0;5;0;9844;0;0;0;0;0;0;6;0;8020;0;0;0;0;0;0;7;0;5247;0;0;0;0;8;0;5858;0;0;0;0;9;0;3344;0;0;0;0
18.12.17;23:45:00;1;320;13735;0;2;0;3984;0;0;0;0;3;0;2449;0;0;0;0;4;0;3405;0;0;0;0;5;0;9844;0;0;0;0;0;0;6;0;8020;0;0;0;0;0;0;7;0;5247;0;0;0;0;8;0;5858;0;0;0;0;9;0;3344;0;0;0;0
18.12.17;23:40:00;1;433;13708;0;2;0;3984;0;0;0;0;3;0;2449;0;0;0;0;4;0;3405;0;0;0;0;5;0;9844;0;0;0;0;0;0;6;0;8020;0;0;0;0;0;0;7;0;5247;0;0;0;0;8;0;5858;0;0;0;0;9;0;3344;0;0;0;0
18.12.17;23:35:00;1;254;13659;0;2;0;3984;0;0;0;0;3;0;2449;0;0;0;0;4;0;3405;0;0;0;0;5;0;9844;0;0;0;0;0;0;6;0;8020;0;0;0;0;0;0;7;0;5247;0;0;0;0;8;0;5858;0;0;0;0;9;0;3344;0;0;0;0
18.12.17;23:30:00;1;253;13638;0;2;0;3984;0;0;0;0;3;0;2449;0;0;0;0;4;0;3405;0;0;0;0;5;0;9844;0;0;0;0;0;0;6;0;8020;0;0;0;0;0;0;7;0;5247;0;0;0;0;8;0;5858;0;0;0;0;9;0;3344;0;0;0;0
18.12.17;23:25:00;1;873;13617;0;2;0;3984;0;0;0;0;3;0;2449;0;0;0;0;4;0;3405;0;0;0;0;5;0;9844;0;0;0;0;0;0;6;0;8020;0;0;0;0;0;0;7;0;5247;0;0;0;0;8;0;5858;0;0;0;0;9;0;3344;0;0;0;0
18.12.17;23:20:00;1;286;13566;0;2;0;3984;0;0;0;0;3;0;2449;0;0;0;0;4;0;3405;0;0;0;0;5;0;9844;0;0;0;0;0;0;6;0;8020;0;0;0;0;0;0;7;0;5247;0;0;0;0;8;0;5858;0;0;0;0;9;0;3344;0;0;0;0
18.12.17;23:15:00;1;310;13542;0;2;0;3984;0;0;0;0;3;0;2449;0;0;0;0;4;0;3405;0;0;0;0;5;0;9844;0;0;0;0;0;0;6;0;8020;0;0;0;0;0;0;7;0;5247;0;0;0;0;8;0;5858;0;0;0;0;9;0;3344;0;0;0;0
18.12.17;23:10:00;1;507;13516;0;2;0;3984;0;0;0;0;3;0;2449;0;0;0;0;4;0;3405;0;0;0;0;5;0;9844;0;0;0;0;0;0;6;0;8020;0;0;0;0;0;0;7;0;5247;0;0;0;0;8;0;5858;0;0;0;0;9;0;3344;0;0;0;0
18.12.17;23:05:00;1;329;13461;0;2;0;3984;0;0;0;0;3;0;2449;0;0;0;0;4;0;3405;0;0;0;0;5;0;9844;0;0;0;0;0;0;6;0;8020;0;0;0;0;0;0;7;0;5247;0;0;0;0;8;0;5858;0;0;0;0;9;0;3344;0;0;0;0
18.12.17;23:00:00;1;291;13433;0;2;0;3984;0;0;0;0;3;0;2449;0;0;0;0;4;0;3405;0;0;0;0;5;0;9844;0;0;0;0;0;0;6;0;8020;0;0;0;0;0;0;7;0;5247;0;0;0;0;8;0;5858;0;0;0;0;9;0;3344;0;0;0;0
18.12.17;22:55:00;1;303;13409;0;2;0;3984;0;0;0;0;3;0;2449;0;0;0;0;4;0;3405;0;0;0;0;5;0;9844;2;0;0;0;0;0;6;0;8020;2;0;0;0;0;0;7;0;5247;0;0;0;0;8;0;5858;0;0;0;0;9;0;3344;0;0;0;0
18.12.17;22:50:00;1;526;13384;0;2;0;3984;0;0;0;0;3;0;2449;0;0;0;0;4;0;3405;0;0;0;0;5;0;9844;2;0;0;0;0;0;6;0;8020;2;0;0;0;0;0;7;0;5247;0;0;0;0;8;0;5858;0;0;0;0;9;0;3344;0;0;0;0
18.12.17;22:45:00;1;409;13324;0;2;0;3984;0;0;0;0;3;0;2449;0;0;0;0;4;0;3405;0;0;0;0;5;0;9844;2;0;0;0;0;0;6;0;8020;2;0;0;0;0;0;7;0;5247;0;0;0;0;8;0;5858;0;0;0;0;9;0;3344;0;0;0;0
18.12.17;22:40:00;1;421;13290;0;2;0;3984;0;0;0;0;3;0;2449;0;0;0;0;4;0;3405;0;0;0;0;5;0;9844;2;0;0;0;0;0;6;0;8020;2;0;0;0;0;0;7;0;5247;0;0;0;0;8;0;5858;0;0;0;0;9;0;3344;0;0;0;0
18.12.17;22:35:00;1;630;13254;0;2;0;3984;0;0;0;0;3;0;2449;0;0;0;0;4;0;3405;0;0;0;0;5;0;9844;2;0;0;0;0;0;6;0;8020;2;0;0;0;0;0;7;0;5247;0;0;0;0;8;0;5858;0;0;0;0;9;0;3344;0;0;0;0
18.12.17;22:30:00;1;427;13190;0;2;0;3984;0;0;0;0;3;0;2449;0;0;0;0;4;0;3405;0;0;0;0;5;0;9844;2;0;0;0;0;0;6;0;8020;2;0;0;0;0;0;7;0;5247;0;0;0;0;8;0;5858;0;0;0;0;9;0;3344;0;0;0;0
18.12.17;22:25:00;1;492;13154;0;2;0;3984;0;0;0;0;3;0;2449;0;0;0;0;4;0;3405;0;0;0;0;5;0;9844;2;0;0;0;0;0;6;0;8020;2;0;0;0;0;0;7;0;5247;0;0;0;0;8;0;5858;0;0;0;0;9;0;3344;0;0;0;0
18.12.17;22:20:00;1;533;13113;0;2;0;3984;0;0;0;0;3;0;2449;0;0;0;0;4;0;3405;0;0;0;0;5;0;9844;2;0;0;0;0;0;6;0;8020;2;0;0;0;0;0;7;0;5247;0;0;0;0;8;0;5858;0;0;0;0;9;0;3344;0;0;0;0
18.12.17;22:15:00;1;767;13053;0;2;0;3984;0;0;0;0;3;0;2449;0;0;0;0;4;0;3405;0;0;0;0;5;0;9844;2;0;0;0;0;0;6;0;8020;2;0;0;0;0;0;7;0;5247;0;0;0;0;8;0;5858;0;0;0;0;9;0;3344;0;0;0;0
18.12.17;22:10:00;1;552;12992;0;2;0;3984;0;0;0;0;3;0;2449;0;0;0;0;4;0;3405;0;0;0;0;5;0;9844;2;0;0;0;0;0;6;0;8020;2;0;0;0;0;0;7;0;5247;0;0;0;0;8;0;5858;0;0;0;0;9;0;3344;0;0;0;0
18.12.17;22:05:00;1;508;12946;0;2;0;3984;0;0;0;0;3;0;2449;0;0;0;0;4;0;3405;0;0;0;0;5;0;9844;2;0;0;0;0;0;6;0;8020;2;0;0;0;0;0;7;0;5247;0;0;0;0;8;0;5858;0;0;0;0;9;0;3344;0;0;0;0
18.12.17;22:00:00;1;852;12904;0;2;0;3984;0;0;0;0;3;0;2449;0;0;0;0;4;0;3405;0;0;0;0;5;0;9844;2;0;0;0;0;0;6;0;8020;2;0;0;0;0;0;7;0;5247;0;0;0;0;8;0;5858;0;0;0;0;9;0;3344;0;0;0;0
18.12.17;21:55:00;1;499;12834;0;2;0;3984;0;0;0;0;3;0;2449;0;0;0;0;4;0;3405;0;0;0;0;5;0;9844;2;0;0;0;0;0;6;0;8020;2;0;0;0;0;0;7;0;5247;0;0;0;0;8;0;5858;0;0;0;0;9;0;3344;0;0;0;0
18.12.17;21:50:00;1;518;12792;0;2;0;3984;0;0;0;0;3;0;2449;0;0;0;0;4;0;3405;0;0;0;0;5;0;9844;2;0;0;0;0;0;6;0;8020;2;0;0;0;0;0;7;0;5247;0;0;0;0;8;0;5858;0;0;0;0;9;0;3344;0;0;0;0
18.12.17;21:45:00;1;541;12748;0;2;0;3984;0;0;0;0;3;0;2449;0;0;0;0;4;0;3405;0;0;0;0;5;0;9844;2;0;0;0;0;0;6;0;8020;2;0;0;0;0;0;7;0;5247;0;0;0;0;8;0;5858;0;0;0;0;9;0;3344;0;0;0;0
18.12.17;21:40:00;1;703;12686;0;2;0;3984;0;0;0;0;3;0;2449;0;0;0;0;4;0;3405;0;0;0;0;5;0;9844;2;0;0;0;0;0;6;0;8020;2;0;0;0;0;0;7;0;5247;0;0;0;0;8;0;5858;0;0;0;0;9;0;3344;0;0;0;0
18.12.17;21:35:00;1;470;12632;0;2;0;3984;0;0;0;0;3;0;2449;0;0;0;0;4;0;3405;0;0;0;0;5;0;9844;2;0;0;0;0;0;6;0;8020;2;0;0;0;0;0;7;0;5247;0;0;0;0;8;0;5858;0;0;0;0;9;0;3344;0;0;0;0
18.12.17;21:30:00;1;459;12592;0;2;0;3984;0;0;0;0;3;0;2449;0;0;0;0;4;0;3405;0;0;0;0;5;0;9844;2;0;0;0;0;0;6;0;8020;2;0;0;0;0;0;7;0;5247;0;0;0;0;8;0;5858;0;0;0;0;9;0;3344;0;0;0;0
18.12.17;21:25:00;1;932;12554;0;2;0;3984;0;0;0;0;3;0;2449;0;0;0;0;4;0;3405;0;0;0;0;5;0;9844;2;0;0;0;0;0;6;0;8020;2;0;0;0;0;0;7;0;5247;0;0;0;0;8;0;5858;0;0;0;0;9;0;3344;0;0;0;0
18.12.17;21:20:00;1;596;12480;0;2;0;3984;0;0;0;0;3;0;2449;0;0;0;0;4;0;3405;0;0;0;0;5;0;9844;2;0;0;0;0;0;6;0;8020;2;0;0;0;0;0;7;0;5247;0;0;0;0;8;0;5858;0;0;0;0;9;0;3344;0;0;0;0
18.12.17;21:15:00;1;702;12430;0;2;0;3984;0;0;0;0;3;0;2449;0;0;0;0;4;0;3405;0;0;0;0;5;0;9844;2;0;0;0;0;0;6;0;8020;2;0;0;0;0;0;7;0;5247;0;0;0;0;8;0;5858;0;0;0;0;9;0;3344;0;0;0;0
18.12.17;21:10:00;1;746;12371;0;2;0;3984;0;0;0;0;3;0;2449;0;0;0;0;4;0;3405;0;0;0;0;5;0;9844;2;0;0;0;0;0;6;0;8020;2;0;0;0;0;0;7;0;5247;0;0;0;0;8;0;5858;0;0;0;0;9;0;3344;0;0;0;0
18.12.17;21:05:00;1;931;12289;0;2;0;3984;0;0;0;0;3;0;2449;0;0;0;0;4;0;3405;0;0;0;0;5;0;9844;2;0;0;0;0;0;6;0;8020;2;0;0;0;0;0;7;0;5247;0;0;0;0;8;0;5858;0;0;0;0;9;0;3344;0;0;0;0
18.12.17;21:00:00;1;700;12221;0;2;0;3984;0;0;0;0;3;0;2449;0;0;0;0;4;0;3405;0;0;0;0;5;0;9844;2;0;0;0;0;0;6;0;8020;2;0;0;0;0;0;7;0;5247;0;0;0;0;8;0;5858;0;0;0;0;9;0;3344;0;0;0;0
18.12.17;20:55:00;1;551;12161;0;2;0;3984;0;0;0;0;3;0;2449;0;0;0;0;4;0;3405;0;0;0;0;5;0;9844;2;0;0;0;0;0;6;0;8020;2;0;0;0;0;0;7;0;5247;0;0;0;0;8;0;5858;0;0;0;0;9;0;3344;0;0;0;0
18.12.17;20:50:00;1;1264;12115;0;2;0;3984;0;0;0;0;3;0;2449;0;0;0;0;4;0;3405;0;0;0;0;5;0;9844;2;0;0;0;0;0;6;0;8020;2;0;0;0;0;0;7;0;5247;0;0;0;0;8;0;5858;0;0;0;0;9;0;3344;0;0;0;0
18.12.17;20:45:00;1;550;12041;0;2;0;3984;0;0;0;0;3;0;2449;0;0;0;0;4;0;3405;0;0;0;0;5;0;9844;2;0;0;0;0;0;6;0;8020;2;0;0;0;0;0;7;0;5247;0;0;0;0;8;0;5858;0;0;0;0;9;0;3344;0;0;0;0
18.12.17;20:40:00;1;3095;11995;0;2;0;3984;0;0;0;0;3;0;2449;0;0;0;0;4;0;3405;0;0;0;0;5;0;9844;2;0;0;0;0;0;6;0;8020;2;0;0;0;0;0;7;0;5247;0;0;0;0;8;0;5858;0;0;0;0;9;0;3344;0;0;0;0
18.12.17;20:35:00;1;2494;11759;0;2;0;3984;0;0;0;0;3;0;2449;0;0;0;0;4;0;3405;0;0;0;0;5;0;9844;2;0;0;0;0;0;6;0;8020;2;0;0;0;0;0;7;0;5247;0;0;0;0;8;0;5858;0;0;0;0;9;0;3344;0;0;0;0
18.12.17;20:30:00;1;2958;11542;0;2;0;3984;0;0;0;0;3;0;2449;0;0;0;0;4;0;3405;0;0;0;0;5;0;9844;2;0;0;0;0;0;6;0;8020;2;0;0;0;0;0;7;0;5247;0;0;0;0;8;0;5858;0;0;0;0;9;0;3344;0;0;0;0
18.12.17;20:25:00;1;879;11304;0;2;0;3984;0;0;0;0;3;0;2449;0;0;0;0;4;0;3405;0;0;0;0;5;0;9844;2;0;0;0;0;0;6;0;8020;2;0;0;0;0;0;7;0;5247;0;0;0;0;8;0;5858;0;0;0;0;9;0;3344;0;0;0;0
18.12.17;20:20:00;1;1340;11199;0;2;0;3984;0;0;0;0;3;0;2449;0;0;0;0;4;0;3405;0;0;0;0;5;0;9844;2;0;0;0;0;0;6;0;8020;2;0;0;0;0;0;7;0;5247;0;0;0;0;8;0;5858;0;0;0;0;9;0;3344;0;0;0;0
18.12.17;20:15:00;1;1063;11098;0;2;0;3984;0;0;0;0;3;0;2449;0;0;0;0;4;0;3405;0;0;0;0;5;0;9844;2;0;0;0;0;0;6;0;8020;2;0;0;0;0;0;7;0;5247;0;0;0;0;8;0;5858;0;0;0;0;9;0;3344;0;0;0;0
18.12.17;20:10:00;1;837;11014;0;2;0;3984;0;0;0;0;3;0;2449;0;0;0;0;4;0;3405;0;0;0;0;5;0;9844;2;0;0;0;0;0;6;0;8020;2;0;0;0;0;0;7;0;5247;0;0;0;0;8;0;5858;0;0;0;0;9;0;3344;0;0;0;0
18.12.17;20:05:00;1;2598;10931;0;2;0;3984;0;0;0;0;3;0;2449;0;0;0;0;4;0;3405;0;0;0;0;5;0;9844;2;0;0;0;0;0;6;0;8020;2;0;0;0;0;0;7;0;5247;0;0;0;0;8;0;5858;0;0;0;0;9;0;3344;0;0;0;0
18.12.17;20:00:00;1;724;10726;0;2;0;3984;0;0;0;0;3;0;2449;0;0;0;0;4;0;3405;0;0;0;0;5;0;9844;2;0;0;0;0;0;6;0;8020;2;0;0;0;0;0;7;0;5247;0;0;0;0;8;0;5858;0;0;0;0;9;0;3344;0;0;0;0
18.12.17;19:55:00;1;2741;10667;0;2;0;3984;0;0;0;0;3;0;2449;0;0;0;0;4;0;3405;0;0;0;0;5;0;9844;2;0;0;0;0;0;6;0;8020;2;0;0;0;0;0;7;0;5247;0;0;0;0;8;0;5858;0;0;0;0;9;0;3344;0;0;0;0
18.12.17;19:50:00;1;1785;10441;0;2;0;3984;0;0;0;0;3;0;2449;0;0;0;0;4;0;3405;0;0;0;0;5;0;9844;2;0;0;0;0;0;6;0;8020;2;0;0;0;0;0;7;0;5247;0;0;0;0;8;0;5858;0;0;0;0;9;0;3344;0;0;0;0
18.12.17;19:45:00;1;954;10303;0;2;0;3984;0;0;0;0;3;0;2449;0;0;0;0;4;0;3405;0;0;0;0;5;0;9844;2;0;0;0;0;0;6;0;8020;2;0;0;0;0;0;7;0;5247;0;0;0;0;8;0;5858;0;0;0;0;9;0;3344;0;0;0;0
18.12.17;19:40:00;1;2311;10190;0;2;0;3984;0;0;0;0;3;0;2449;0;0;0;0;4;0;3405;0;0;0;0;5;0;9844;2;0;0;0;0;0;6;0;8020;2;0;0;0;0;0;7;0;5247;0;0;0;0;8;0;5858;0;0;0;0;9;0;3344;0;0;0;0
18.12.17;19:35:00;1;2856;9991;0;2;0;3984;0;0;0;0;3;0;2449;0;0;0;0;4;0;3405;0;0;0;0;5;0;9844;2;0;0;0;0;0;6;0;8020;2;0;0;0;0;0;7;0;5247;0;0;0;0;8;0;5858;0;0;0;0;9;0;3344;0;0;0;0
18.12.17;19:30:00;1;691;9808;0;2;0;3984;0;0;0;0;3;0;2449;0;0;0;0;4;0;3405;0;0;0;0;5;0;9844;2;0;0;0;0;0;6;0;8020;2;0;0;0;0;0;7;0;5247;0;0;0;0;8;0;5858;0;0;0;0;9;0;3344;0;0;0;0
18.12.17;19:25:00;1;601;9749;0;2;0;3984;0;0;0;0;3;0;2449;0;0;0;0;4;0;3405;0;0;0;0;5;0;9844;2;0;0;0;0;0;6;0;8020;2;0;0;0;0;0;7;0;5247;0;0;0;0;8;0;5858;0;0;0;0;9;0;3344;0;0;0;0
18.12.17;19:20:00;1;778;9699;0;2;0;3984;0;0;0;0;3;0;2449;0;0;0;0;4;0;3405;0;0;0;0;5;0;9844;2;0;0;0;0;0;6;0;8020;2;0;0;0;0;0;7;0;5247;0;0;0;0;8;0;5858;0;0;0;0;9;0;3344;0;0;0;0
18.12.17;19:15:00;1;484;9620;0;2;0;3984;0;0;0;0;3;0;2449;0;0;0;0;4;0;3405;0;0;0;0;5;0;9844;2;0;0;0;0;0;6;0;8020;2;0;0;0;0;0;7;0;5247;0;0;0;0;8;0;5858;0;0;0;0;9;0;3344;0;0;0;0
18.12.17;19:10:00;1;536;9580;0;2;0;3984;0;0;0;0;3;0;2449;0;0;0;0;4;0;3405;0;0;0;0;5;0;9844;2;0;0;0;0;0;6;0;8020;2;0;0;0;0;0;7;0;5247;0;0;0;0;8;0;5858;0;0;0;0;9;0;3344;0;0;0;0
18.12.17;19:05:00;1;725;9534;0;2;0;3984;0;0;0;0;3;0;2449;0;0;0;0;4;0;3405;0;0;0;0;5;0;9844;2;0;0;0;0;0;6;0;8020;2;0;0;0;0;0;7;0;5247;0;0;0;0;8;0;5858;0;0;0;0;9;0;3344;0;0;0;0
18.12.17;19:00:00;1;1020;9474;0;2;0;3984;0;0;0;0;3;0;2449;0;0;0;0;4;0;3405;0;0;0;0;5;0;9844;2;0;0;0;0;0;6;0;8020;2;0;0;0;0;0;7;0;5247;0;0;0;0;8;0;5858;0;0;0;0;9;0;3344;0;0;0;0
18.12.17;18:55:00;1;704;9390;0;2;0;3984;0;0;0;0;3;0;2449;0;0;0;0;4;0;3405;0;0;0;0;5;0;9844;2;0;0;0;0;0;6;0;8020;2;0;0;0;0;0;7;0;5247;0;0;0;0;8;0;5858;0;0;0;0;9;0;3344;0;0;0;0
18.12.17;18:50:00;1;696;9333;0;2;0;3984;0;0;0;0;3;0;2449;0;0;0;0;4;0;3405;0;0;0;0;5;0;9844;2;0;0;0;0;0;6;0;8020;2;0;0;0;0;0;7;0;5247;0;0;0;0;8;0;5858;0;0;0;0;9;0;3344;0;0;0;0
18.12.17;18:45:00;1;694;9275;0;2;0;3984;0;0;0;0;3;0;2449;0;0;0;0;4;0;3405;0;0;0;0;5;0;9844;2;0;0;0;0;0;6;0;8020;2;0;0;0;0;0;7;0;5247;0;0;0;0;8;0;5858;0;0;0;0;9;0;3344;0;0;0;0
18.12.17;18:40:00;1;879;9217;0;2;0;3984;0;0;0;0;3;0;2449;0;0;0;0;4;0;3405;0;0;0;0;5;0;9844;2;0;0;0;0;0;6;0;8020;2;0;0;0;0;0;7;0;5247;0;0;0;0;8;0;5858;0;0;0;0;9;0;3344;0;0;0;0
18.12.17;18:35:00;1;685;9137;0;2;0;3984;0;0;0;0;3;0;2449;0;0;0;0;4;0;3405;0;0;0;0;5;0;9844;2;0;0;0;0;0;6;0;8020;2;0;0;0;0;0;7;0;5247;0;0;0;0;8;0;5858;0;0;0;0;9;0;3344;0;0;0;0
18.12.17;18:30:00;1;732;9080;0;2;0;3984;0;0;0;0;3;0;2449;0;0;0;0;4;0;3405;0;0;0;0;5;0;9844;2;0;0;0;0;0;6;0;8020;2;0;0;0;0;0;7;0;5247;0;0;0;0;8;0;5858;0;0;0;0;9;0;3344;0;0;0;0
18.12.17;18:25:00;1;932;9019;0;2;0;3984;0;0;0;0;3;0;2449;0;0;0;0;4;0;3405;0;0;0;0;5;0;9844;2;0;0;0;0;0;6;0;8020;2;0;0;0;0;0;7;0;5247;0;0;0;0;8;0;5858;0;0;0;0;9;0;3344;0;0;0;0
18.12.17;18:20:00;1;710;8929;0;2;0;3984;0;0;0;0;3;0;2449;0;0;0;0;4;0;3405;0;0;0;0;5;0;9844;2;0;0;0;0;0;6;0;8020;2;0;0;0;0;0;7;0;5247;0;0;0;0;8;0;5858;0;0;0;0;9;0;3344;0;0;0;0
18.12.17;18:15:00;1;673;8870;0;2;0;3984;0;0;0;0;3;0;2449;0;0;0;0;4;0;3405;0;0;0;0;5;0;9844;2;0;0;0;0;0;6;0;8020;2;0;0;0;0;0;7;0;5247;0;0;0;0;8;0;5858;0;0;0;0;9;0;3344;0;0;0;0
18.12.17;18:10:00;1;2258;8812;0;2;0;3984;0;0;0;0;3;0;2449;0;0;0;0;4;0;3405;0;0;0;0;5;0;9844;2;0;0;0;0;0;6;0;8020;2;0;0;0;0;0;7;0;5247;0;0;0;0;8;0;5858;0;0;0;0;9;0;3344;0;0;0;0
18.12.17;18:05:00;1;2530;8678;0;2;0;3984;0;0;0;0;3;0;2449;0;0;0;0;4;0;3405;0;0;0;0;5;0;9844;2;0;0;0;0;0;6;0;8020;2;0;0;0;0;0;7;0;5247;0;0;0;0;8;0;5858;0;0;0;0;9;0;3344;0;0;0;0
18.12.17;18:00:00;1;2981;8502;0;2;0;3984;0;0;0;0;3;0;2449;0;0;0;0;4;0;3405;0;0;0;0;5;0;9844;2;0;0;0;0;0;6;0;8020;2;0;0;0;0;0;7;0;5247;0;0;0;0;8;0;5858;0;0;0;0;9;0;3344;0;0;0;0
18.12.17;17:55:00;1;2340;8290;0;2;0;3984;0;0;0;0;3;0;2449;0;0;0;0;4;0;3405;0;0;0;0;5;0;9844;2;0;0;0;0;0;6;0;8020;2;0;0;0;0;0;7;0;5247;0;0;0;0;8;0;5858;0;0;0;0;9;0;3344;0;0;0;0
18.12.17;17:50:00;1;831;8158;0;2;0;3984;0;0;0;0;3;0;2449;0;0;0;0;4;0;3405;0;0;0;0;5;0;9844;2;0;0;0;0;0;6;0;8020;2;0;0;0;0;0;7;0;5247;0;0;0;0;8;0;5858;0;0;0;0;9;0;3344;0;0;0;0
18.12.17;17:45:00;1;3570;8059;0;2;0;3984;0;0;0;0;3;0;2449;0;0;0;0;4;0;3405;0;0;0;0;5;0;9844;2;0;0;0;0;0;6;0;8020;2;0;0;0;0;0;7;0;5247;0;0;0;0;8;0;5858;0;0;0;0;9;0;3344;0;0;0;0
18.12.17;17:40:00;1;2880;7780;0;2;0;3984;0;0;0;0;3;0;2449;0;0;0;0;4;0;3405;0;0;0;0;5;0;9844;2;0;0;0;0;0;6;0;8020;2;0;0;0;0;0;7;0;5247;0;0;0;0;8;0;5858;0;0;0;0;9;0;3344;0;0;0;0
18.12.17;17:35:00;1;2798;7534;0;2;0;3984;0;0;0;0;3;0;2449;0;0;0;0;4;0;3405;0;0;0;0;5;0;9844;2;0;0;0;0;0;6;0;8020;2;0;0;0;0;0;7;0;5247;0;0;0;0;8;0;5858;0;0;0;0;9;0;3344;0;0;0;0
18.12.17;17:30:00;1;2802;7301;0;2;0;3984;0;0;0;0;3;0;2449;0;0;0;0;4;0;3405;0;0;0;0;5;0;9844;2;0;0;0;0;0;6;0;8020;2;0;0;0;0;0;7;0;5247;0;0;0;0;8;0;5858;0;0;0;0;9;0;3344;0;0;0;0
18.12.17;17:25:00;1;2722;7054;0;2;0;3984;0;0;0;0;3;0;2449;0;0;0;0;4;0;3405;0;0;0;0;5;0;9844;2;0;0;0;0;0;6;0;8020;2;0;0;0;0;0;7;0;5247;0;0;0;0;8;0;5858;0;0;0;0;9;0;3344;0;0;0;0
18.12.17;17:20:00;1;888;6855;0;2;0;3984;0;0;0;0;3;0;2449;0;0;0;0;4;0;3405;0;0;0;0;5;0;9844;2;0;0;0;0;0;6;0;8020;2;0;0;0;0;0;7;0;5247;0;0;0;0;8;0;5858;0;0;0;0;9;0;3344;0;0;0;0
18.12.17;17:15:00;1;758;6782;0;2;0;3984;0;0;0;0;3;0;2449;0;0;0;0;4;0;3405;0;0;0;0;5;0;9844;2;0;0;0;0;0;6;0;8020;2;0;0;0;0;0;7;0;5247;0;0;0;0;8;0;5858;0;0;0;0;9;0;3344;0;0;0;0
18.12.17;17:10:00;1;792;6720;0;2;0;3984;0;0;0;0;3;0;2449;0;0;0;0;4;0;3405;0;0;0;0;5;0;9844;2;0;0;0;0;0;6;0;8020;2;0;0;0;0;0;7;0;5247;0;0;0;0;8;0;5858;0;0;0;0;9;0;3344;0;0;0;0
18.12.17;17:05:00;1;1253;6644;0;2;0;3984;0;0;0;0;3;0;2449;0;0;0;0;4;0;3405;0;0;0;0;5;0;9844;2;0;0;0;0;0;6;0;8020;2;0;0;0;0;0;7;0;5247;0;0;0;0;8;0;5858;0;0;0;0;9;0;3344;0;0;0;0
18.12.17;17:00:00;1;445;6600;0;2;0;3984;0;0;0;0;3;0;2449;0;0;0;0;4;0;3405;0;0;0;0;5;0;9844;2;0;0;0;0;0;6;0;8020;2;0;0;0;0;0;7;0;5247;0;0;0;0;8;0;5858;0;0;0;0;9;0;3344;0;0;0;0
18.12.17;16:55:00;1;443;6562;0;2;0;3984;0;0;0;0;3;0;2449;0;0;0;0;4;0;3405;0;0;0;0;5;0;9844;2;0;0;0;0;0;6;0;8020;2;0;0;0;0;0;7;0;5247;0;0;0;0;8;0;5858;0;0;0;0;9;0;3344;0;0;0;0
18.12.17;16:50:00;1;623;6525;0;2;0;3984;0;0;0;0;3;0;2449;0;0;0;0;4;0;3405;0;0;0;0;5;0;9844;2;0;0;0;0;0;6;0;8020;2;0;0;0;0;0;7;0;5247;0;0;0;0;8;0;5858;0;0;0;0;9;0;3344;0;0;0;0
18.12.17;16:45:00;1;449;6459;0;2;0;3984;0;0;0;0;3;0;2449;0;0;41;2;4;0;3405;0;0;0;0;5;0;9844;2;0;0;0;0;0;6;0;8020;2;0;0;0;0;0;7;0;5247;0;0;0;0;8;0;5858;0;0;0;0;9;0;3344;0;0;0;0
18.12.17;16:40:00;1;519;6421;0;2;0;3984;0;0;235;7;3;0;2449;6;0;294;12;4;0;3405;0;0;0;0;5;0;9844;2;0;0;0;0;0;6;0;8020;2;0;0;0;0;0;7;0;5247;0;0;0;0;8;0;5858;0;0;0;0;9;0;3344;0;0;0;0
18.12.17;16:35:00;1;448;6378;0;2;0;3984;6;0;314;9;3;0;2449;6;0;368;12;4;0;3405;0;0;64;5;5;0;9844;2;0;0;0;0;0;6;0;8020;2;0;0;0;0;0;7;0;5247;0;0;0;0;8;0;5858;0;0;0;0;9;0;3344;0;0;0;0
18.12.17;16:30:00;1;677;6340;0;2;0;3984;6;0;352;9;3;0;2449;6;1;422;12;4;0;3405;1;0;109;7;5;0;9844;2;0;0;231;230;12;6;0;8020;2;7;0;310;141;15;7;0;5247;0;0;85;4;8;0;5858;0;0;86;4;9;0;3344;0;0;178;5
18.12.17;16:25:00;1;401;6275;0;2;0;3984;6;0;379;9;3;0;2449;6;0;470;12;4;0;3405;1;0;149;7;5;0;9844;23;0;0;404;419;19;6;0;8020;23;9;2;181;527;18;7;0;5247;6;0;305;12;8;0;5858;6;0;310;12;9;0;3344;6;0;323;9
18.12.17;16:20:00;1;429;6242;0;2;0;3984;6;0;398;9;3;1;2449;3;5;462;13;4;0;3405;1;0;186;8;5;6;9844;26;0;1;416;615;19;6;0;8020;23;8;1;182;567;18;7;0;5247;6;0;373;13;8;0;5858;6;0;379;12;9;0;3344;6;0;403;9
18.12.17;16:15:00;1;415;6205;0;2;0;3984;6;0;410;10;3;1;2449;6;3;492;13;4;0;3405;1;0;212;8;5;5;9844;4;0;0;430;683;20;6;0;8020;23;8;1;182;586;19;7;0;5247;6;0;395;13;8;0;5858;6;0;408;13;9;0;3344;6;0;461;9
18.12.17;16:10:00;1;1095;6171;0;2;3;3984;3;11;399;10;3;1;2449;6;4;511;13;4;0;3405;3;0;213;9;5;71;9843;4;12;10;383;612;21;6;15;8020;1;19;6;573;550;20;7;1;5247;6;1;442;13;8;1;5858;6;3;430;13;9;2;3344;4;3;460;9
18.12.17;16:05:00;1;422;6108;0;2;3;3984;6;10;416;10;3;0;2449;6;6;522;13;4;0;3405;3;0;232;9;5;90;9837;4;29;28;383;612;21;6;65;8019;4;49;21;488;458;20;7;2;5246;6;5;468;14;8;3;5858;6;5;470;13;9;5;3344;3;7;489;9
18.12.17;16:00:00;1;541;6073;0;2;23;3984;6;38;402;11;3;4;2449;6;13;512;13;4;0;3405;3;0;200;9;5;129;9829;4;50;42;383;612;21;6;82;8013;4;64;33;488;458;20;7;0;5246;6;7;491;14;8;1;5858;6;7;492;13;9;2;3343;6;5;537;9
18.12.17;15:55:00;1;521;6028;0;2;63;3982;4;95;365;11;3;0;2448;6;0;574;13;4;11;3405;3;11;198;9;5;163;9818;4;71;66;383;612;21;6;112;8006;4;94;56;488;458;20;7;40;5246;4;76;391;14;8;43;5858;4;75;402;14;9;4;3343;6;8;552;10
18.12.17;15:50:00;1;900;5986;0;2;82;3977;4;118;392;11;3;14;2448;4;25;533;14;4;41;3404;3;42;197;9;5;203;9804;4;96;64;383;612;21;6;130;7997;4;58;35;488;458;21;7;62;5243;4;100;440;14;8;63;5854;4;104;445;14;9;5;3343;6;9;565;10
18.12.17;15:45:00;1;465;5919;0;2;112;3970;4;147;380;11;3;62;2447;4;101;471;14;4;57;3401;3;59;197;9;5;241;9787;4;117;98;383;612;21;6;165;7986;4;87;53;500;458;20;7;100;5238;4;134;432;14;8;95;5849;4;130;433;14;9;8;3342;6;11;571;10
18.12.17;15:40:00;1;486;5880;0;2;172;3960;4;208;393;12;3;100;2442;4;142;505;14;4;106;3396;3;110;226;10;5;332;9766;4;164;138;390;612;21;6;234;7971;4;147;89;593;459;21;7;173;5230;4;211;448;14;8;169;5841;4;208;453;14;9;87;3342;4;116;495;11
18.12.17;15:35:00;1;466;5839;0;2;237;3946;4;278;399;12;3;144;2434;4;184;518;14;4;168;3387;5;175;235;10;5;436;9738;4;215;185;406;626;21;6;325;7951;4;147;111;600;558;20;7;265;5215;4;302;463;14;8;264;5827;4;296;475;14;9;129;3334;4;161;537;11
18.12.17;15:30:00;1;1109;5801;0;2;282;3926;4;322;395;12;3;174;2421;4;217;525;14;4;211;3373;5;219;241;10;5;532;9700;4;263;225;406;656;21;6;405;7923;4;222;171;595;569;21;7;304;5193;4;364;487;14;8;321;5805;4;365;469;14;9;167;3324;4;201;532;11
18.12.17;15:25:00;1;401;5737;0;2;307;3903;4;350;406;12;3;196;2407;4;239;510;14;4;237;3356;5;247;243;10;5;600;9655;4;293;254;409;662;21;6;455;7889;4;255;205;604;578;20;7;366;5168;4;410;473;14;8;362;5778;4;404;494;14;9;190;3310;4;223;530;11
18.12.17;15:20:00;1;402;5703;0;2;319;3878;4;362;403;12;3;200;2391;4;243;479;14;4;249;3336;5;259;244;10;5;656;9605;4;320;273;414;688;21;6;474;7851;4;264;210;606;578;20;7;404;5138;4;443;471;14;8;396;5748;4;443;487;14;9;205;3294;4;241;524;11
18.12.17;15:15:00;1;412;5670;0;2;498;3851;4;543;397;12;3;280;2374;4;322;468;15;4;290;3315;5;301;244;10;5;834;9552;4;400;356;429;698;21;6;586;7811;4;335;284;597;582;20;7;565;5104;4;610;472;14;8;530;5715;4;578;495;14;9;197;3277;4;229;424;11
18.12.17;15:10:00;1;702;5634;0;2;1040;3809;4;1108;409;13;3;579;2350;4;637;480;15;4;399;3291;5;415;254;10;5;1308;9485;4;633;601;429;723;21;6;958;7760;4;499;485;559;593;20;7;1411;5055;4;1492;504;14;8;1282;5670;4;1360;507;14;9;335;3260;4;369;369;11
18.12.17;15:05:00;1;466;5566;0;2;1205;3725;4;1278;396;12;3;748;2304;4;815;511;14;4;456;3258;5;474;254;10;5;1201;9380;4;589;532;440;693;21;6;1043;7678;4;548;494;626;604;20;7;2124;4942;4;2237;516;14;8;2149;5567;4;2252;512;14;9;514;3233;4;561;446;11
18.12.17;15:00:00;1;477;5528;0;2;427;3625;4;474;413;12;3;265;2242;4;315;521;14;4;330;3221;5;343;240;10;5;799;9274;4;405;342;424;682;21;6;613;7590;4;339;281;608;580;20;7;608;4765;4;649;491;14;8;606;5389;4;661;485;14;9;262;3191;4;302;539;11
18.12.17;14:55:00;1;490;5488;0;2;400;3589;4;448;414;12;3;250;2219;4;299;521;14;4;344;3193;5;358;244;10;5;846;9208;4;425;362;422;707;21;6;633;7541;4;357;297;606;582;20;7;469;4711;4;521;497;14;8;478;5334;4;525;496;14;9;256;3169;4;297;529;11
18.12.17;14:50:00;1;719;5447;0;2;378;3555;4;425;406;12;3;234;2198;4;281;517;14;4;324;3164;5;338;241;10;5;811;9138;4;409;346;420;700;21;6;609;7488;4;377;312;614;578;20;7;436;4672;4;487;492;14;8;445;5294;4;492;491;14;9;240;3148;4;275;527;11
18.12.17;14:45:00;1;302;5378;0;2;377;3524;4;423;417;12;3;234;2179;4;283;521;14;4;321;3137;5;334;239;10;5;800;9070;4;406;344;424;689;21;6;605;7437;4;351;292;610;580;20;7;429;4635;4;477;474;14;8;438;5257;4;481;480;14;9;233;3127;4;270;537;11
18.12.17;14:40:00;1;303;5353;0;2;371;3492;4;416;415;12;3;230;2159;4;276;518;14;4;320;3110;5;333;242;10;5;815;9002;4;410;345;432;688;21;6;612;7387;4;341;284;605;573;20;7;426;4599;4;463;490;14;8;420;5220;4;468;491;14;9;228;3108;4;262;536;11
18.12.17;14:35:00;1;272;5328;0;2;349;3461;4;393;414;12;3;218;2140;4;261;513;14;4;294;3084;5;306;241;10;5;784;8934;4;390;323;426;688;21;6;575;7336;4;265;217;612;577;20;7;383;4564;4;422;495;14;8;392;5185;4;434;489;14;9;210;3089;4;246;520;11
18.12.17;14:30:00;1;444;5305;0;2;344;3432;4;389;413;12;3;210;2122;4;253;491;15;4;286;3059;5;298;242;10;5;761;8870;4;382;323;423;680;21;6;570;7287;4;307;255;602;572;20;7;371;4532;4;412;476;14;8;370;5152;4;415;488;14;9;201;3071;4;236;525;11
18.12.17;14:25:00;1;193;5259;0;2;352;3403;4;398;412;12;3;217;2104;4;261;494;15;4;295;3035;5;307;243;10;5;771;8806;4;398;328;422;671;21;6;578;7240;4;307;254;611;575;20;7;378;4501;4;420;485;14;8;391;5121;4;428;480;14;9;206;3055;4;241;524;12
18.12.17;14:20:00;1;195;5243;0;2;362;3374;4;407;414;12;3;222;2086;4;266;488;15;4;302;3011;5;315;241;10;5;794;8741;4;404;336;422;693;21;6;598;7191;4;349;283;601;575;20;7;379;4469;4;427;490;14;8;392;5089;4;443;483;14;9;211;3037;4;246;528;12
18.12.17;14:15:00;1;193;5226;0;2;371;3344;4;417;406;12;3;256;2068;4;275;506;15;4;309;2985;5;322;239;10;5;813;8675;4;409;347;419;682;21;6;607;7142;4;373;301;604;572;20;7;383;4438;4;425;497;14;8;402;5056;4;446;489;14;9;215;3020;4;249;535;12
18.12.17;14:10:00;1;925;5210;0;2;376;3313;4;420;409;12;3;233;2047;4;278;514;15;4;314;2960;5;327;242;11;5;807;8608;4;413;345;424;680;21;6;607;7091;4;343;287;607;576;20;7;401;4406;4;430;465;14;8;395;5023;4;436;461;14;9;213;3002;4;249;533;12
18.12.17;14:05:00;1;221;5163;0;2;401;3282;4;445;406;13;3;245;2027;4;295;524;15;4;331;2934;5;345;241;11;5;865;8540;4;440;368;419;698;21;6;641;7041;4;367;306;609;579;21;7;409;4372;4;453;479;15;8;415;4990;4;460;467;14;9;222;2984;4;260;535;12
18.12.17;14:00:00;1;261;5145;0;2;463;3248;4;513;413;13;3;288;2007;4;335;517;15;4;394;2906;5;410;243;11;5;983;8467;4;505;423;429;698;21;6;735;6987;4;426;355;611;580;21;7;491;4338;4;531;480;15;8;489;4955;4;535;473;14;9;264;2965;4;303;528;12
18.12.17;13:55:00;1;460;5123;0;2;495;3210;4;546;412;13;3;309;1983;4;355;528;15;4;423;2873;5;441;243;11;5;1045;8385;4;530;451;425;693;21;6;790;6925;4;462;398;614;585;21;7;536;4297;4;576;480;15;8;548;4915;4;589;479;14;9;290;2944;4;330;537;12
18.12.17;13:50:00;1;870;5090;0;2;557;3168;4;609;420;13;3;347;1957;4;399;525;15;4;473;2838;5;493;245;11;5;1135;8297;4;588;487;433;700;21;6;858;6859;4;465;399;614;584;21;7;588;4252;4;639;492;15;8;603;4869;4;649;487;15;9;320;2919;4;365;541;12
18.12.17;13:45:00;1;404;5028;0;2;628;3122;4;680;418;13;3;394;1928;4;446;526;15;4;537;2799;5;559;244;11;5;1261;8201;4;656;544;429;710;21;6;950;6787;4;518;448;612;589;21;7;716;4204;4;751;500;15;8;711;4819;4;763;496;15;9;383;2893;4;431;543;13